sat.trackr.live / text

‹ back to catalog

STARLINK-31251

NORAD 58836 · 2024-017L

PAYLOAD ACTIVE UNKNOWN

§ Identity

Operator
Country
US
Launch date
2024-01-24
Launch site
AFWTR
Launch vehicle
Mass (kg)
RCS (m²)

Purposes: comms

External: N2YO · Heavens-Above · Gunter

§ Orbital elements

Epoch: 2026-09-20T12:40:46.136928Z

Period
93.85 min
Inclination
53.1621°
Eccentricity
0.0001380
Mean motion
15.34375708 rev/d
Perigee alt
461.8 km
Apogee alt
463.7 km
Semi-major
6,840.9 km
B*
3.0698e-4
RAAN
17.4185°
Arg perigee
78.0556°
Mean anomaly
282.0602°
Rev number
15,002

§ Raw data

STARLINK-312511 58836U 24017L   26263.52831177  .00010001  00000+0  30698-3 0  99972 58836  53.1621  17.4185 0001380  78.0556 282.0602 15.34375708150020

JSON: /api/v1/satellites/58836 · /tle

For live sub-satellite position, see the globe view (requires WebGL).

§ Visibility from observer

Set your observer location to see the next 7 days of passes ≥ 10°. The values pass through the URL so the page stays shareable.

No JS? Fill the form by hand. The geolocation button needs JavaScript.